Tracking 19146 objects as of 23-Apr-2018
HD Live streaming from Space Station
objects crossing your sky now

GOES 4 AKM

Track GOES 4 AKM now!


NORAD ID: 11970
Int'l Code: 1980-074C
Perigee: 33,790.1 km
Apogee: 50,268.1 km
Inclination: 22.7 °
Period: 1,766.2 minutes
Semi major axis: 48400 km
RCS: 0.003 m2 (small)
Launch date: September 9, 1980
Source: United States (US)
Launch site: AIR FORCE EASTERN TEST RANGE (AFETR)

Note: This is a ROCKET BODY
aabbcc
Your satellite tracking list
Your tracking list is empty




NASA's NSSDC Master Catalog

Two Line Element Set (TLE):
1 11970U 80074C   18111.99933576 -.00000231 +00000-0 +00000-0 0  9997
2 11970 022.7490 339.3228 1702273 197.9518 149.4968 00.81533006014233
Source of the keplerian elements: AFSPC